Weather Roundup
Issued by NWS Chicago, IL

Home | Current Version | Previous Version | Graphics & Text | Print | Product List | Glossary On
Versions: 1 2 3 4 5 6 7 8 9 10 11 12 13 14 15 16 17 18 19 20 21 22 23 24 25 26 27 28 29 30 31 32 33 34 35 36 37 38 39 40 41 42 43 44 45 46 47 48 49 50
000
NZUS59 KLOT 191408
HRRLOT

CHICAGO AREA WEATHER ROUNDUP
NATIONAL WEATHER SERVICE CHICAGO/ROMEOVILLE IL
900 AM CDT SAT AUG 19 2017

NOTE: "FAIR" INDICATES FEW OR NO CLOUDS BELOW 12,000 FEET WITH NO
SIGNIFICANT WEATHER AND/OR OBSTRUCTIONS TO VISIBILITY.

* THESE STATIONS ARE NOT UNDER NWS QUALITY CONTROL. THEY ALSO MAY NOT
  REPORT WEATHER SUCH AS PRECIPITATION OR FOG.

ILZ005-006-012>014-019>023-191500-
NORTHEAST ILLINOIS

CITY           SKY/WX    TMP DP  RH WIND       PRES   REMARKS
OHARE          MOSUNNY   72  61  68 NE3       29.95F
MIDWAY         MOSUNNY   72  63  73 NE5       29.95F
AURORA         SUNNY     68  63  84 CALM      29.97S
LANSING*       MOSUNNY   71  61  70 CALM      29.96F
JOLIET*        SUNNY     70  64  80 CALM      29.97R
WAUKEGAN       SUNNY     69  64  84 CALM      29.95R
DUPAGE AIRPORT SUNNY     69  64  84 NE6       29.96R
WHEELING       SUNNY     69  64  84 CALM      29.97S
MORRIS*        CLOUDY    68  64  86 CALM      29.95S
LEWIS AIRPORT* SUNNY     69  60  73 NE3       29.97R
NORTHERLY ISL    N/A     72  62  71 NE3         N/A
$$

WIZ051-052-058>065-066-070>072-191500-
SOUTHEAST WISCONSIN

CITY           SKY/WX    TMP DP  RH WIND       PRES   REMARKS
MILWAUKEE      SUNNY     70  62  76 NW6       29.94S
KENOSHA*       SUNNY     70  62  76 CALM      29.95S
RACINE*        SUNNY     70  63  78 CALM      29.96S
WAUKESHA       CLOUDY    63  61  94 W3        29.97R FOG
WEST BEND      CLOUDY    66  63  88 NW7       29.95S
$$

INZ001>003-010>013-019-020-191500-
NORTHWEST INDIANA

CITY           SKY/WX    TMP DP  RH WIND       PRES   REMARKS
GARY*          MOSUNNY   72  63  73 N5        29.97R
MICHIGAN CITY* NOT AVBL
RENSSELAER*    NOT AVBL
VALPARAISO     MOSUNNY   74  65  73 N6        29.96S
$$

LMZ740>746-191500-
SOUTHERN LAKE MICHIGAN

STATION/POSITION TIME  SKY/WX   TEMP WIND        PRES    VSBY
                                AIR  DIR/SP/G
                 (UTC)          (F)  (DEG/KT/KT) (MB)    (MI)
HARRISON CRIB    1340            69  350/  3/  3   N/A
BURNHAM HARBOR   NOT AVBL
CALUMET HARBOR   1348            70  350/  5/  8 1013.8S
BURNS HARBOR     1340            70  340/  5/  7 1015.2R
MICHIGAN CITY    1340            71  320/  7/  8   N/A
$$

ABBREVIATIONS USED IN REMARKS
   TC - TEMPERATURE IN CELSIUS
  WCI - WIND CHILL INDEX
   HX - HEAT INDEX
  VSB - VISIBILITY
$$




USA.gov is the U.S. government's official web portal to all federal, state and local government web resources and services.